TITAN 3C TRANSTAGE DEB, 28819

Orbit data source: Space-Track

TITAN 3C TRANSTAGE DEB, 28819 is space debris in HEO originally from a launch on Tue, 21 Dec 1965 UTC launched from the Air Force Eastern Test Range (AFETR). Debris objects in space refer to the collection of defunct objects orbiting the Earth. Examples of debris include non-operational satellites, rocket bodies, and fragments generated from explosions, collisions, or faulty payload assembly.

Loading next visibility...
Identifier
28819, 1965-108CG
Orbit
HEO
Country
Flag of USUS
Related business
Manufacturer
Unknown
Mission
Spacecraft
Bus & Motor
Unknown
Mass
Unknown
Launch date (UTC)
1965-12-21 (60 years ago)
Launch vehicle
Unknown
Launch site
Air Force Eastern Test Range (AFETR)
Object type
Payload
Rocket body
Debris
Shape & HBR
Unknown shape, 1.1 m
Radar Cross Section
Medium (>0.1 m² and <1 m²)

Expand to show TLE details & history
Last TLE update: 23 hours ago

TLE from 23 hours ago
0 TITAN 3C TRANSTAGE DEB
1 28819U 65108CG  26150.26579661  .00000003  00000-0  53797-3 0  9991
2 28819  26.8294 192.4577 6726448  49.3122   2.7970  2.70703148216561
Epoch: 2026-05-30T06:22Z
TLE epoch observation values (Epoch: 2026-05-30T06:22:44.827Z)
Latitude
24.87694°
Longitude
-85.25991°
Altitude
878.14 km
Speed
9.57 km/s
True Right ascension
17h 12m 50s
True Declination
24° 44' 53"
Sunlit
Object was in full shadow at epoch
Visualization orbit readout
Latitude
Unknown
Longitude
Unknown
Altitude
Unknown
Speed
Unknown
Apparent Right ascension
Unknown
Apparent Declination
Unknown
Sunlit
N/A
Visualization observer readout
Local Sidereal Time
14:31:51
Azimuth
Unknown
Elevation
Unknown
Doppler factor
Unknown
Orbital elements
Apogee altitude
30,003.28 km
Perigee altitude
742.111 km
Semi-major axis
21,750.833 km
Eccentricity
0.67264
Inclination
26.8294°
RAAN
192.4577°
Arg. of periapsis
49.3122°
True anomaly
19.02826°
Mean anomaly
2.797°
Eccentric anomaly
8.48068°
Mean motion
0.6766 °/min
Orbital period
532.08 mins
BSTAR
0.00053797
Loading maneuver chart data...
Computing Atmospheric mass density...

Documentation

Showing up to 5 results
|